[[{"header":{"parameterUnit":"m.s-1","parameterCategory":2,"la1":30.2991,"la2":30.254,"lo1":-89.0895,"lo2":-89.0444,"dy":0.0017,"dx":0.0017,"nx":28,"ny":28,"refTime":"2023-03-19T21:00:00:Z","depth":"0","parameterNumber":2,"parameterNumberName":"U-component_of_CURRENTS"},"data":[0,0,0,0,0,0,0,0,0,0,0,0,0,0,0,0,0,0,0,0,0,0,0,0,0,0,0,0,0,0,0,0,0,0,0,0,0,0,0,0,0,0,0,0,0,0,0,0,0,0,0,0,0,0,0,0,0,0,0.0699,0.07,0,0.0801,0.0802,0.0803,0.0888,0.0889,0.0889,0.089,0.1038,0.1041,0.1044,0,0,0,0,0,0,0,0,0,0,0,0,0,0.061,0.0611,0.0699,0.07,0.0701,0.0801,0.0802,0.0804,0.0888,0.0889,0.0889,0.089,0.1037,0.1041,0.1045,0,0,0,0,0,0,0,0,0,0,0,0,0,0.0676,0.0612,0.0699,0.0753,0.0759,0.08,0.0802,0.0804,0.0888,0.0889,0.089,0.0891,0.1036,0.104,0.1045,0.1055,0,0,0.106,0.1062,0,0,0,0,0,0,0,0,0.0672,0.0679,0.0744,0.075,0.0756,0.0831,0.0825,0.089,0.0887,0.0841,0.089,0.0891,0.0971,0.0981,0.1,0.1062,0.1068,0.1061,0.1064,0.1066,0.1067,0,0,0,0,0,0,0,0.0667,0.0676,0.0741,0.0745,0.0752,0.0784,0.0794,0.0838,0.0901,0.0845,0.0851,0.0859,0.0975,0.0995,0.1005,0.107,0.1061,0.1065,0.1068,0.107,0.1146,0.1145,0,0,0,0,0,0,0.0648,0.0671,0.0738,0.0744,0.0713,0.0784,0.0796,0.0808,0.09,0.0914,0.0858,0.0862,0.0986,0.0999,0.101,0.1024,0.1066,0.107,0.1073,0.1147,0.1146,0.1145,0,0,0,0,0,0,0.0645,0.0653,0.0734,0.0708,0.072,0.0784,0.0797,0.0809,0.0825,0.0909,0.0924,0.086,0.0988,0.1003,0.1042,0.1031,0.1073,0.1077,0.1148,0.1147,0.1145,0.1054,0,0,0,0,0,0,0.0643,0.0652,0.0644,0.0707,0.0721,0.0741,0.0796,0.081,0.0827,0.0834,0.0916,0.0931,0.099,0.1034,0.1047,0.1038,0.1081,0.1149,0.1148,0.1146,0.1058,0.105,0.1043,0,0,0,0,0,0.0639,0.0621,0.0643,0.0651,0.0712,0.0739,0.0749,0.08,0.0826,0.0821,0.0882,0.0928,0.1032,0.1037,0.1052,0.1045,0.115,0.1148,0.1146,0.1062,0.1052,0.1043,0,0,0,0,0,0,0.0565,0.063,0.0655,0.0654,0.0686,0.0752,0.075,0.0785,0.0829,0.0838,0.092,0.0939,0.0967,0.1013,0.1017,0.106,0.1097,0.1098,0.1028,0.1019,0.1011,0.0991,0.1085,0,0,0,0,0,0.0547,0.0556,0.0616,0.0607,0.0625,0.0684,0.0699,0.0734,0.0783,0.0804,0.0861,0.092,0.097,0.0999,0.1045,0.1069,0.1095,0.1072,0.1064,0.1057,0.105,0.1082,0.1076,0.1138,0.1138,0.1138,0,0,0.0514,0.0547,0.0551,0.0592,0.0626,0.0643,0.0696,0.071,0.0723,0.0812,0.0839,0.0891,0.0968,0.0998,0.1014,0.1037,0.1048,0.1055,0.1048,0.1045,0.1079,0.1073,0.1068,0.1137,0.1137,0.1137,0,0,0.0457,0.0484,0.0482,0.0509,0.0551,0.0591,0.0589,0.0648,0.0673,0.0701,0.0772,0.0812,0.0883,0.0938,0.0977,0.0949,0.1,0.0963,0.0915,0.0946,0.0941,0.0938,0.0936,0.0933,0.0964,0.0964,0.0964,0,0.0408,0.0429,0.0477,0.0486,0.0506,0.0563,0.0568,0.0596,0.0656,0.0676,0.0693,0.0797,0.0854,0.0909,0.0901,0.0931,0.0947,0.0947,0.0935,0.0932,0.093,0.093,0.0928,0.0959,0.096,0.096,0.0961,0,0.0372,0.0384,0.0379,0.0421,0.044,0.0446,0.0502,0.0516,0.055,0.0591,0.0632,0.0704,0.0772,0.079,0.0841,0.086,0.0873,0.0916,0.0957,0.0918,0.0921,0.092,0.0953,0.0954,0.0956,0.0957,0,0,0.0274,0.0343,0.0341,0.0361,0.0412,0.0426,0.0439,0.048,0.0498,0.0534,0.056,0.0628,0.0669,0.0713,0.0778,0.0801,0.079,0.0844,0.0848,0.0838,0.0832,0.0829,0.0828,0.0835,0.0835,0.0835,0.083,0,0.023,0.0242,0.0291,0.0295,0.031,0.037,0.0384,0.0423,0.0461,0.0494,0.0554,0.0602,0.0641,0.0677,0.0701,0.0784,0.0788,0.0785,0.0877,0.0878,0.0877,0.0828,0.0883,0.0884,0.083,0.083,0.083,0,0.0183,0.0204,0.0208,0.0263,0.0275,0.0283,0.033,0.0353,0.0411,0.0442,0.0486,0.0544,0.0592,0.0627,0.0704,0.0702,0.0747,0.0793,0.0795,0.0826,0.0875,0.0921,0.0885,0.0973,0.083,0.083,0.083,0,0.0106,0.0145,0.015,0.0165,0.023,0.0239,0.0273,0.0329,0.0359,0.0412,0.0438,0.0499,0.0543,0.0599,0.0685,0.0699,0.0757,0.08,0.0826,0.0826,0.0907,0.0914,0.0968,0.0829,0.0829,0.0829,0.0829,0,0.0047,0.0045,0.0115,0.0117,0.0125,0.0187,0.0204,0.0246,0.0309,0.0349,0.0408,0.0448,0.054,0.0595,0.0659,0.0729,0.0736,0.0798,0.0825,0.0873,0.0877,0.0988,0.1064,0.0829,0.0829,0.0829,0.0829,0,-0.0048,-0.0001,0.0004,0.0067,0.0089,0.0088,0.0166,0.0185,0.0249,0.0302,0.032,0.0409,0.0483,0.0559,0.0658,0.0703,0.0801,0.0793,0.082,0.085,0.0953,0.1023,0.1031,0.0963,0.0815,0.0815,0.0815,0,-0.0102,-0.0104,-0.0046,-0.0036,-0.0012,0.0016,0.0046,0.0134,0.0166,0.0287,0.0305,0.0391,0.0463,0.0574,0.0675,0.076,0.0804,0.0841,0.088,0.0945,0.1044,0.101,0.0947,0.0943,0.0944,0.0945,0.0946,0,-0.0208,-0.0183,-0.0167,-0.0131,-0.0107,-0.007,-0.0016,0.0008,0.0125,0.0194,0.0293,0.0364,0.0498,0.0627,0.0725,0.0789,0.0877,0.0858,0.0945,0.1151,0.1103,0.1056,0.0934,0.0953,0.0952,0.0952,0.0951,0.0951,-0.03,-0.0306,-0.0263,-0.0232,-0.0199,-0.0156,-0.0117,-0.0035,0.0042,0.0216,0.0274,0.0473,0.0655,0.0815,0.0826,0.0991,0.0926,0.1073,0.1149,0.1099,0.1048,0.0906,0.0948,0.0947,0.0946,0.0946,0.0945,0,-0.0402,-0.0374,-0.0354,-0.031,-0.0277,-0.0228,-0.015,-0.006,0.005,0.0269,0.041,0.0756,0.0898,0.1047,0.1278,0.1336,0.1207,0.1351,0.136,0.1272,0.1193,0.1216,0.1297,0.1297,0.1296,0.1296,0.1296,0.1296,-0.0461,-0.0448,-0.0406,-0.0374,-0.0339,-0.023,-0.0173,-0.001,0.0185,0.0552,0.0847,0.1013,0.1376,0.1694,0.1834,0.1759,0.1658,0.1633,0.1535,0.16,0.158,0.1561,0.1597,0.1757,0.1757,0.1529,0.153,0.153]},{"header":{"parameterUnit":"m.s-1","parameterCategory":2,"la1":30.2991,"la2":30.254,"lo1":-89.0895,"lo2":-89.0444,"dy":0.0017,"dx":0.0017,"nx":28,"ny":28,"refTime":"2023-03-19T21:00:00:Z","depth":"0","parameterNumber":3,"parameterNumberName":"V-component_of_CURRENTS"},"data":[0,0,0,0,0,0,0,0,0,0,0,0,0,0,0,0,0,0,0,0,0,0,0,0,0,0,0,0,0,0,0,0,0,0,0,0,0,0,0,0,0,0,0,0,0,0,0,0,0,0,0,0,0,0,0,0,0,0,-0.2123,-0.2122,0,-0.2098,-0.2098,-0.2098,-0.2052,-0.2051,-0.205,-0.2049,-0.2057,-0.2058,-0.2059,0,0,0,0,0,0,0,0,0,0,0,0,0,-0.2129,-0.2129,-0.2123,-0.2122,-0.2122,-0.2098,-0.2098,-0.2098,-0.2052,-0.2051,-0.205,-0.2049,-0.2057,-0.2058,-0.2059,0,0,0,0,0,0,0,0,0,0,0,0,0,-0.2118,-0.2129,-0.2123,-0.2096,-0.2094,-0.2098,-0.2098,-0.2097,-0.2052,-0.2051,-0.205,-0.2048,-0.2056,-0.2058,-0.2059,-0.2096,0,0,-0.2064,-0.2065,0,0,0,0,0,0,0,0,-0.2118,-0.2117,-0.21,-0.2098,-0.2095,-0.2076,-0.2103,-0.2099,-0.2053,-0.2068,-0.2049,-0.2048,-0.2067,-0.2068,-0.2066,-0.2097,-0.2097,-0.2064,-0.2065,-0.2066,-0.2066,0,0,0,0,0,0,0,-0.2119,-0.2118,-0.2113,-0.21,-0.2097,-0.2085,-0.2082,-0.2102,-0.2077,-0.2067,-0.2063,-0.2061,-0.2066,-0.2065,-0.2066,-0.2097,-0.2064,-0.2066,-0.2067,-0.2067,-0.2155,-0.2156,0,0,0,0,0,0,-0.2123,-0.2119,-0.2114,-0.2112,-0.2103,-0.2086,-0.2083,-0.2084,-0.2075,-0.2072,-0.2062,-0.2059,-0.2063,-0.2064,-0.2066,-0.2103,-0.2066,-0.2067,-0.2068,-0.2153,-0.2155,-0.2157,0,0,0,0,0,0,-0.2124,-0.2123,-0.2115,-0.2115,-0.2113,-0.2087,-0.2089,-0.2084,-0.2083,-0.2071,-0.2069,-0.2065,-0.2062,-0.2064,-0.2079,-0.2103,-0.2068,-0.207,-0.2152,-0.2154,-0.2156,-0.2181,0,0,0,0,0,0,-0.2124,-0.2124,-0.2133,-0.2115,-0.2113,-0.2125,-0.209,-0.2085,-0.2083,-0.2079,-0.2074,-0.2073,-0.2061,-0.2077,-0.2081,-0.2105,-0.2071,-0.215,-0.2153,-0.2155,-0.2178,-0.2184,-0.2188,0,0,0,0,0,-0.2124,-0.2143,-0.2134,-0.2134,-0.2125,-0.2126,-0.2125,-0.2102,-0.2085,-0.2094,-0.2081,-0.2073,-0.2096,-0.2079,-0.2084,-0.2108,-0.2149,-0.2152,-0.2155,-0.2176,-0.2183,-0.2188,0,0,0,0,0,0,-0.2164,-0.214,-0.2129,-0.2143,-0.2138,-0.2118,-0.213,-0.2111,-0.2109,-0.2107,-0.2088,-0.2087,-0.2105,-0.2112,-0.2093,-0.2143,-0.2124,-0.2128,-0.2138,-0.2145,-0.2149,-0.2154,-0.2072,0,0,0,0,0,-0.2176,-0.2175,-0.2158,-0.2173,-0.2174,-0.2155,-0.2155,-0.2139,-0.2131,-0.2127,-0.2121,-0.2122,-0.2125,-0.2136,-0.2139,-0.2176,-0.218,-0.2197,-0.2202,-0.2206,-0.2214,-0.2242,-0.225,-0.2167,-0.2167,-0.2167,0,0,-0.2194,-0.2184,-0.2183,-0.218,-0.2177,-0.2181,-0.2152,-0.216,-0.2162,-0.2133,-0.2145,-0.2136,-0.2136,-0.2158,-0.2171,-0.2167,-0.2231,-0.221,-0.2213,-0.2219,-0.2246,-0.2254,-0.2261,-0.2169,-0.2169,-0.2168,0,0,-0.2229,-0.2227,-0.2234,-0.2233,-0.223,-0.2215,-0.2219,-0.2206,-0.2203,-0.2218,-0.2186,-0.219,-0.2212,-0.2204,-0.2205,-0.2249,-0.2247,-0.2259,-0.2297,-0.2324,-0.2331,-0.2337,-0.2345,-0.2352,-0.2271,-0.2271,-0.2272,0,-0.2251,-0.2256,-0.2242,-0.2254,-0.225,-0.2231,-0.2239,-0.2243,-0.2234,-0.2237,-0.223,-0.2237,-0.2234,-0.2246,-0.2256,-0.2259,-0.227,-0.227,-0.2329,-0.2335,-0.2341,-0.2348,-0.2355,-0.2273,-0.2273,-0.2273,-0.2273,0,-0.2288,-0.2292,-0.2305,-0.23,-0.23,-0.231,-0.2301,-0.2311,-0.2305,-0.2298,-0.2314,-0.2305,-0.2306,-0.2311,-0.2299,-0.2336,-0.2328,-0.2321,-0.231,-0.2351,-0.2356,-0.2363,-0.2275,-0.2275,-0.2274,-0.2274,0,0,-0.233,-0.2324,-0.233,-0.232,-0.232,-0.2317,-0.2341,-0.2344,-0.2347,-0.2363,-0.237,-0.2382,-0.237,-0.2372,-0.2355,-0.2384,-0.2426,-0.238,-0.238,-0.238,-0.2481,-0.245,-0.2453,-0.2434,-0.2436,-0.2437,-0.2465,0,-0.2359,-0.2368,-0.2363,-0.2368,-0.2366,-0.2359,-0.2371,-0.2375,-0.2382,-0.239,-0.2399,-0.2395,-0.2396,-0.2385,-0.2422,-0.2412,-0.2448,-0.2419,-0.2449,-0.245,-0.2411,-0.2462,-0.2345,-0.2359,-0.2471,-0.2473,-0.2473,0,-0.2391,-0.2387,-0.2392,-0.2371,-0.2372,-0.2373,-0.2372,-0.2382,-0.2401,-0.2409,-0.2428,-0.242,-0.2445,-0.2441,-0.2488,-0.2473,-0.249,-0.2495,-0.2496,-0.2465,-0.2431,-0.234,-0.2367,-0.2399,-0.2484,-0.2483,-0.2482,0,-0.2397,-0.2402,-0.2395,-0.2394,-0.238,-0.2382,-0.2375,-0.2387,-0.2384,-0.2411,-0.2407,-0.2447,-0.2439,-0.2492,-0.2505,-0.2504,-0.2556,-0.2549,-0.2541,-0.2538,-0.2444,-0.243,-0.2498,-0.2605,-0.2605,-0.2604,-0.2604,0,-0.2411,-0.2406,-0.2393,-0.2388,-0.2372,-0.2373,-0.2359,-0.2371,-0.2377,-0.2347,-0.2404,-0.2388,-0.2456,-0.2481,-0.2519,-0.2548,-0.2571,-0.256,-0.2553,-0.2448,-0.2435,-0.2462,-0.2514,-0.2605,-0.2605,-0.2605,-0.2605,0,-0.2403,-0.2405,-0.2385,-0.2372,-0.2368,-0.235,-0.2323,-0.2306,-0.2333,-0.2297,-0.2298,-0.2347,-0.2375,-0.2437,-0.2498,-0.2538,-0.2596,-0.2583,-0.2447,-0.2425,-0.2451,-0.2509,-0.2592,-0.2676,-0.2588,-0.2587,-0.2587,0,-0.2395,-0.2388,-0.236,-0.2335,-0.2323,-0.2299,-0.2268,-0.2279,-0.2238,-0.2248,-0.2209,-0.2255,-0.2222,-0.2328,-0.2415,-0.2486,-0.2563,-0.245,-0.2435,-0.2454,-0.2514,-0.2551,-0.262,-0.2314,-0.2311,-0.2309,-0.2307,0,-0.2364,-0.2354,-0.2324,-0.2271,-0.2232,-0.2193,-0.2143,-0.2098,-0.2081,-0.2015,-0.195,-0.1939,-0.2077,-0.2074,-0.2222,-0.2303,-0.2472,-0.241,-0.2464,-0.2347,-0.2357,-0.243,-0.2291,-0.2288,-0.229,-0.2292,-0.2293,-0.2293,-0.232,-0.2279,-0.2227,-0.2155,-0.2142,-0.2062,-0.1963,-0.1857,-0.1728,-0.152,-0.1652,-0.1485,-0.1676,-0.1856,-0.2028,-0.2236,-0.2358,-0.2254,-0.2333,-0.2377,-0.2435,-0.2258,-0.223,-0.2232,-0.2233,-0.2234,-0.2235,0,-0.2204,-0.2156,-0.2106,-0.2016,-0.1957,-0.1978,-0.1852,-0.1663,-0.1397,-0.1173,-0.1035,-0.0952,-0.1164,-0.1461,-0.1789,-0.2023,-0.2202,-0.2208,-0.2223,-0.2315,-0.2152,-0.2116,-0.2019,-0.2019,-0.2019,-0.2019,-0.2019,-0.2018,-0.2134,-0.2009,-0.1957,-0.1818,-0.1795,-0.1603,-0.1494,-0.1203,-0.0959,-0.0459,-0.0213,-0.0162,-0.0326,-0.1137,-0.1695,-0.194,-0.2177,-0.2241,-0.2455,-0.229,-0.23,-0.2309,-0.2285,-0.2226,-0.2226,-0.2537,-0.254,-0.2542]}],[{"header":{"parameterUnit":"m.s-1","parameterCategory":2,"la1":30.2991,"la2":30.254,"lo1":-89.0895,"lo2":-89.0444,"dy":0.0017,"dx":0.0017,"nx":28,"ny":28,"refTime":"2023-03-19T21:00:00:Z","depth":"2","parameterNumber":2,"parameterNumberName":"U-component_of_CURRENTS"},"data":[0,0,0,0,0,0,0,0,0,0,0,0,0,0,0,0,0,0,0,0,0,0,0,0,0,0,0,0,0,0,0,0,0,0,0,0,0,0,0,0,0,0,0,0,0,0,0,0,0,0,0,0,0,0,0,0,0,0,0.0848,0.0849,0,0.0952,0.0954,0.0955,0.1037,0.1038,0.1039,0.1039,0.1231,0.1235,0.124,0,0,0,0,0,0,0,0,0,0,0,0,0,0.0783,0.0784,0.0848,0.0849,0.085,0.0952,0.0954,0.0955,0.1037,0.1038,0.1039,0.1039,0.1229,0.1235,0.124,0,0,0,0,0,0,0,0,0,0,0,0,0,0.0844,0.0784,0.0848,0.0901,0.0907,0.0952,0.0954,0.0956,0.1037,0.1038,0.1039,0.104,0.1227,0.1234,0.1241,0.1267,0,0,0.1262,0.1265,0,0,0,0,0,0,0,0,0.0841,0.0847,0.0892,0.0898,0.0904,0.098,0.1001,0.1063,0.1037,0.0991,0.1039,0.104,0.1153,0.1166,0.1186,0.1276,0.1284,0.1263,0.1267,0.127,0.1272,0,0,0,0,0,0,0,0.0836,0.0843,0.0892,0.0893,0.09,0.0941,0.0951,0.1013,0.107,0.0995,0.1,0.1007,0.1157,0.1179,0.1192,0.1287,0.1262,0.1269,0.1273,0.1275,0.1423,0.1423,0,0,0,0,0,0,0.0813,0.0839,0.0889,0.0895,0.087,0.0941,0.0952,0.0957,0.1067,0.1083,0.1006,0.101,0.1167,0.1183,0.1199,0.1255,0.127,0.1276,0.128,0.1423,0.1423,0.1423,0,0,0,0,0,0,0.0811,0.0817,0.0885,0.0867,0.0878,0.0941,0.0947,0.0959,0.0979,0.1074,0.1093,0.1013,0.1168,0.1189,0.1256,0.1263,0.1279,0.1286,0.1424,0.1423,0.1423,0.1357,0,0,0,0,0,0,0.0809,0.0815,0.0806,0.0865,0.0878,0.0915,0.0946,0.096,0.0981,0.0987,0.1087,0.1105,0.1171,0.1245,0.1263,0.1273,0.1291,0.1424,0.1424,0.1423,0.1359,0.1354,0.135,0,0,0,0,0,0.0806,0.0795,0.0805,0.0811,0.0865,0.0915,0.0926,0.0975,0.098,0.0995,0.1056,0.1102,0.1255,0.125,0.1271,0.1284,0.1424,0.1424,0.1423,0.1361,0.1355,0.135,0,0,0,0,0,0,0.076,0.0803,0.0816,0.0817,0.0861,0.0928,0.0937,0.0963,0.102,0.1025,0.1106,0.113,0.1187,0.124,0.1232,0.1322,0.1345,0.1348,0.1291,0.1286,0.1281,0.1301,0.1297,0,0,0,0,0,0.0742,0.0745,0.0799,0.0798,0.0816,0.087,0.089,0.0927,0.0983,0.1008,0.1071,0.1138,0.12,0.1245,0.1305,0.1361,0.1391,0.1379,0.1374,0.137,0.1399,0.1431,0.1432,0.1421,0.1421,0.1421,0,0,0.0721,0.0744,0.0745,0.0788,0.0822,0.0871,0.0886,0.0918,0.0965,0.1021,0.1088,0.1122,0.1207,0.1268,0.1298,0.1317,0.138,0.1369,0.1365,0.1398,0.1431,0.1432,0.1433,0.1421,0.1421,0.1421,0,0,0.0698,0.0703,0.0711,0.0754,0.0804,0.0849,0.0853,0.0916,0.0949,0.101,0.1054,0.1091,0.1192,0.1252,0.1297,0.1303,0.1345,0.131,0.1322,0.135,0.1352,0.1354,0.1353,0.1356,0.1319,0.1319,0.1319,0,0.0668,0.0698,0.072,0.0758,0.08,0.0839,0.0884,0.0927,0.1002,0.1037,0.1029,0.1148,0.1194,0.1285,0.1279,0.1296,0.1308,0.1333,0.1344,0.1347,0.135,0.135,0.1354,0.1316,0.1316,0.1316,0.1317,0,0.0678,0.0707,0.0716,0.0783,0.0828,0.0868,0.0939,0.0976,0.1004,0.1051,0.1116,0.1161,0.1239,0.1238,0.1267,0.1313,0.1308,0.1321,0.1356,0.1347,0.1347,0.1352,0.1311,0.1312,0.1313,0.1314,0,0,0.0601,0.0702,0.0707,0.076,0.085,0.0894,0.0965,0.1051,0.1098,0.1138,0.1198,0.1257,0.1255,0.1304,0.132,0.134,0.1333,0.1335,0.1338,0.1331,0.1374,0.1361,0.1365,0.1341,0.1343,0.1344,0.135,0,0.0607,0.0684,0.0736,0.0826,0.0884,0.0957,0.1025,0.1103,0.1155,0.1214,0.125,0.1298,0.1291,0.1297,0.1322,0.1336,0.135,0.133,0.139,0.1392,0.1379,0.1373,0.1256,0.1253,0.1355,0.1356,0.1357,0,0.0611,0.0671,0.0751,0.0879,0.0906,0.0956,0.1076,0.1144,0.1237,0.127,0.1322,0.1342,0.1382,0.1355,0.1402,0.1385,0.1382,0.1383,0.1384,0.1412,0.139,0.1288,0.1258,0.1365,0.1365,0.1364,0.1363,0,0.0579,0.0688,0.0753,0.0798,0.0934,0.0973,0.104,0.1147,0.1202,0.1286,0.1307,0.138,0.1383,0.1415,0.1411,0.1404,0.1446,0.144,0.1432,0.1429,0.1369,0.136,0.1479,0.1479,0.1479,0.1479,0.1479,0,0.0591,0.0647,0.0733,0.0778,0.0853,0.0949,0.1022,0.1104,0.119,0.1239,0.1309,0.1348,0.1393,0.142,0.1429,0.1445,0.1464,0.1446,0.1443,0.1337,0.1326,0.1469,0.1467,0.1479,0.1479,0.1479,0.1479,0,0.058,0.0627,0.0714,0.0822,0.0843,0.0899,0.0996,0.1056,0.1127,0.1185,0.1198,0.1309,0.1348,0.1389,0.1431,0.1449,0.1475,0.1474,0.1333,0.1315,0.1431,0.1426,0.1475,0.1475,0.1475,0.1475,0.1475,0,0.0601,0.0635,0.0723,0.0755,0.0799,0.0868,0.0916,0.101,0.107,0.1159,0.119,0.1243,0.1302,0.1381,0.1436,0.1472,0.1459,0.1351,0.1336,0.1445,0.1437,0.1432,0.1428,0.1202,0.12,0.1198,0.1197,0,0.0664,0.0668,0.0742,0.0783,0.082,0.0875,0.0941,0.0972,0.1065,0.1078,0.1145,0.1189,0.129,0.131,0.1365,0.1372,0.1343,0.1316,0.1472,0.1233,0.1192,0.1183,0.1186,0.118,0.1182,0.1183,0.1184,0.1184,0.0725,0.0768,0.0829,0.0879,0.0882,0.0913,0.0972,0.1014,0.1061,0.1099,0.1129,0.1132,0.1182,0.1251,0.125,0.1235,0.1327,0.1228,0.1232,0.1238,0.1217,0.118,0.1159,0.1161,0.1162,0.1163,0.1164,0,0.0864,0.089,0.0931,0.1,0.1004,0.0976,0.1025,0.1048,0.1086,0.1032,0.1064,0.0991,0.1033,0.1039,0.1026,0.1078,0.1071,0.0993,0.0936,0.0954,0.0969,0.0933,0.08,0.0799,0.0798,0.0797,0,0,0.0959,0.1044,0.1059,0.1123,0.1118,0.1138,0.1159,0.112,0.1076,0.0961,0.0886,0.0997,0.0992,0.0879,0.0896,0.0814,0.0873,0.0794,0.1082,0.1028,0.1042,0.1101,0.1066,0,0,0,0,0]},{"header":{"parameterUnit":"m.s-1","parameterCategory":2,"la1":30.2991,"la2":30.254,"lo1":-89.0895,"lo2":-89.0444,"dy":0.0017,"dx":0.0017,"nx":28,"ny":28,"refTime":"2023-03-19T21:00:00:Z","depth":"2","parameterNumber":3,"parameterNumberName":"V-component_of_CURRENTS"},"data":[0,0,0,0,0,0,0,0,0,0,0,0,0,0,0,0,0,0,0,0,0,0,0,0,0,0,0,0,0,0,0,0,0,0,0,0,0,0,0,0,0,0,0,0,0,0,0,0,0,0,0,0,0,0,0,0,0,0,0.0644,0.0643,0,0.0612,0.0612,0.0612,0.0548,0.0546,0.0545,0.0544,0.0453,0.0452,0.0451,0,0,0,0,0,0,0,0,0,0,0,0,0,0.0655,0.0655,0.0644,0.0643,0.0643,0.0612,0.0612,0.0612,0.0548,0.0546,0.0545,0.0543,0.0454,0.0452,0.0451,0,0,0,0,0,0,0,0,0,0,0,0,0,0.064,0.0655,0.0644,0.0606,0.0603,0.0613,0.0612,0.0612,0.0548,0.0546,0.0544,0.0542,0.0454,0.0453,0.0451,0.0482,0,0,0.0446,0.0445,0,0,0,0,0,0,0,0,0.0641,0.064,0.0612,0.0609,0.0605,0.0581,0.0583,0.0565,0.0549,0.057,0.0544,0.0541,0.0491,0.0487,0.0488,0.0478,0.0474,0.0446,0.0445,0.0444,0.0443,0,0,0,0,0,0,0,0.0642,0.0641,0.0632,0.0612,0.0607,0.0593,0.0589,0.0579,0.0543,0.0568,0.0563,0.0559,0.0489,0.049,0.0485,0.0473,0.0446,0.0444,0.0443,0.0443,0.0394,0.0394,0,0,0,0,0,0,0.0646,0.0642,0.0633,0.0631,0.0617,0.0595,0.059,0.0592,0.0544,0.0535,0.056,0.0556,0.0493,0.0487,0.0481,0.0431,0.0444,0.0442,0.0441,0.0395,0.0394,0.0394,0,0,0,0,0,0,0.0647,0.0646,0.0635,0.0635,0.0632,0.0596,0.0599,0.0592,0.0573,0.0538,0.0528,0.0546,0.0492,0.0484,0.0453,0.043,0.0442,0.044,0.0395,0.0395,0.0394,0.0385,0,0,0,0,0,0,0.0647,0.0647,0.0647,0.0635,0.0632,0.0637,0.0601,0.0593,0.0574,0.0567,0.0523,0.0514,0.0489,0.0456,0.0452,0.0428,0.0439,0.0395,0.0395,0.0394,0.0386,0.0384,0.0383,0,0,0,0,0,0.0648,0.0665,0.0648,0.0646,0.0635,0.0637,0.0635,0.0603,0.0576,0.0577,0.0536,0.0514,0.0449,0.0455,0.045,0.0425,0.0396,0.0395,0.0394,0.0386,0.0385,0.0383,0,0,0,0,0,0,0.0675,0.066,0.064,0.0652,0.064,0.0625,0.0625,0.0602,0.0574,0.056,0.0518,0.0507,0.0469,0.0458,0.0465,0.0411,0.0416,0.0415,0.0412,0.041,0.0409,0.0408,0.0437,0,0,0,0,0,0.0682,0.0685,0.0668,0.0676,0.0671,0.0645,0.064,0.062,0.0595,0.058,0.0544,0.0506,0.047,0.0448,0.0424,0.0404,0.038,0.0383,0.0382,0.0381,0.0378,0.0319,0.0312,0.0392,0.0392,0.0392,0,0,0.0693,0.0686,0.0686,0.0681,0.0668,0.0672,0.0637,0.0632,0.062,0.0576,0.0545,0.0505,0.0465,0.0431,0.0412,0.0413,0.0348,0.038,0.0379,0.0377,0.0318,0.031,0.0303,0.0392,0.0392,0.0392,0,0,0.0728,0.0713,0.0727,0.0721,0.0706,0.069,0.0686,0.0662,0.0632,0.0608,0.0559,0.0504,0.0469,0.042,0.0395,0.0378,0.0346,0.037,0.0357,0.03,0.0292,0.0286,0.0253,0.0243,0.0365,0.0365,0.0365,0,0.0736,0.0757,0.0732,0.0747,0.0746,0.0698,0.0714,0.0683,0.0648,0.0624,0.0597,0.0506,0.0461,0.0401,0.0376,0.0372,0.0344,0.0363,0.0297,0.0289,0.0282,0.025,0.024,0.0365,0.0365,0.0365,0.0365,0,0.0785,0.0796,0.0807,0.0802,0.0798,0.0807,0.0765,0.0741,0.0694,0.0655,0.0585,0.0514,0.0458,0.0423,0.0385,0.0311,0.031,0.0303,0.0298,0.0273,0.0242,0.0231,0.0364,0.0364,0.0364,0.0364,0,0,0.0809,0.0835,0.0834,0.0849,0.083,0.0835,0.0809,0.0776,0.0756,0.0677,0.0639,0.0529,0.0474,0.044,0.0377,0.0303,0.0214,0.0272,0.027,0.0237,0.0098,0.0102,0.009,0.0189,0.0187,0.0185,0.0098,0,0.0848,0.0898,0.0893,0.0926,0.0947,0.0905,0.089,0.0847,0.0791,0.074,0.0624,0.0564,0.0485,0.0444,0.0355,0.0249,0.0183,0.0239,0.013,0.0127,0.013,0.0077,0.0194,0.0127,0.0088,0.0086,0.0084,0,0.0891,0.0922,0.0967,0.0996,0.0999,0.1,0.0973,0.0955,0.0866,0.0819,0.0724,0.064,0.05,0.0449,0.0247,0.0284,0.019,0.0107,0.0103,0.01,0.011,0.0143,0.0108,0.0066,0.0067,0.0069,0.007,0,0.0924,0.0972,0.101,0.1019,0.1035,0.1034,0.1028,0.0971,0.0952,0.0858,0.0818,0.0671,0.0578,0.043,0.0238,0.0237,0.0034,0.0027,-0.0049,-0.0049,0.0028,0.0038,-0.0097,-0.0097,-0.0097,-0.0097,-0.0097,0,0.097,0.0997,0.1028,0.1047,0.1083,0.1079,0.1087,0.1056,0.101,0.0971,0.0851,0.0787,0.056,0.0414,0.0259,0.0063,0.0053,-0.0066,-0.0083,0.003,0.0041,-0.0027,-0.0018,-0.01,-0.0099,-0.0099,-0.0098,0,0.0989,0.1013,0.1057,0.1088,0.1097,0.1115,0.1128,0.1133,0.1079,0.1023,0.0986,0.0846,0.0645,0.0438,0.02,0.0092,-0.0084,-0.0137,0.0018,0.0019,-0.0128,-0.0118,-0.0236,-0.0237,-0.0237,-0.0238,-0.0239,0,0.0998,0.1024,0.1074,0.1095,0.1104,0.1136,0.1155,0.1154,0.1166,0.1052,0.1035,0.084,0.0716,0.0399,0.0174,-0.0066,-0.0113,-0.0089,-0.008,-0.0144,-0.0149,-0.0138,-0.0127,0.0026,0.0028,0.0029,0.003,0,0.1005,0.1014,0.1051,0.1104,0.1136,0.1183,0.1217,0.1256,0.1227,0.1161,0.1091,0.0988,0.0697,0.0504,0.0192,0.0054,-0.0045,-0.0069,-0.0189,0.0042,0.0094,0.0093,0.0096,0.0043,0.0041,0.004,0.004,0.0039,0.0983,0.1012,0.1056,0.1108,0.115,0.1219,0.1276,0.1333,0.1345,0.1307,0.1217,0.1062,0.0921,0.0509,0.0259,-0.0029,-0.0021,-0.0044,-0.0045,-0.0048,-0.0004,0.0044,-0.0008,-0.0009,-0.001,-0.0011,-0.0012,0,0.0956,0.1004,0.1055,0.1129,0.118,0.1204,0.1304,0.1379,0.1433,0.1372,0.134,0.1113,0.0927,0.0616,0.0222,0.0042,0.0025,-0.0028,0.0039,0.0034,0.0027,0.0074,0.0091,0.0089,0.0088,0.0086,0,0,0.0942,0.0989,0.1036,0.113,0.1182,0.1261,0.1328,0.1454,0.1472,0.1427,0.1305,0.1366,0.0994,0.0772,0.0548,0.0272,0.0172,0.0221,0.019,0.0301,0.0294,0.0101,0.0179,0,0,0,0,0]}],[{"header":{"parameterUnit":"m.s-1","parameterCategory":2,"la1":30.2991,"la2":30.254,"lo1":-89.0895,"lo2":-89.0444,"dy":0.0017,"dx":0.0017,"nx":28,"ny":28,"refTime":"2023-03-19T21:00:00:Z","depth":"4","parameterNumber":2,"parameterNumberName":"U-component_of_CURRENTS"},"data":[0,0,0,0,0,0,0,0,0,0,0,0,0,0,0,0,0,0,0,0,0,0,0,0,0,0,0,0,0,0,0,0,0,0,0,0,0,0,0,0,0,0,0,0,0,0,0,0,0,0,0,0,0,0,0,0,0,0,0.03,0.03,0,0.0226,0.0225,0.0224,0.0173,0.0173,0.0173,0.0174,0.0035,0.0031,0.0027,0,0,0,0,0,0,0,0,0,0,0,0,0,0.0306,0.0306,0.03,0.03,0.0299,0.0226,0.0225,0.0223,0.0173,0.0173,0.0174,0.0174,0.0036,0.0031,0.0027,0,0,0,0,0,0,0,0,0,0,0,0,0,0.027,0.0306,0.03,0.027,0.0267,0.0227,0.0225,0.0223,0.0173,0.0173,0.0174,0.0174,0.0037,0.0032,0.0026,-0.0015,0,0,0.0008,0.0006,0,0,0,0,0,0,0,0,0.0272,0.0269,0.0275,0.0272,0.0269,0.0214,0.0176,0.0142,0.0173,0.0203,0.0174,0.0174,0.0092,0.0082,0.006,-0.0021,-0.0027,0.0008,0.0004,0.0002,0.0,0,0,0,0,0,0,0,0.0274,0.0271,0.0265,0.0275,0.0271,0.0229,0.0224,0.0169,0.0141,0.02,0.0198,0.0199,0.0089,0.0066,0.0056,-0.0029,0.0008,0.0003,-0.0001,-0.0003,-0.0125,-0.0124,0,0,0,0,0,0,0.03,0.0274,0.0267,0.0263,0.0277,0.0229,0.0224,0.0227,0.0143,0.0133,0.0198,0.0197,0.0076,0.0063,0.0051,0.005,0.0002,-0.0004,-0.0007,-0.0125,-0.0125,-0.0124,0,0,0,0,0,0,0.03,0.03,0.0271,0.0271,0.0265,0.023,0.0233,0.0225,0.0225,0.0144,0.0131,0.021,0.0075,0.0059,0.0019,0.0042,-0.0006,-0.0011,-0.0125,-0.0125,-0.0124,0.0014,0,0,0,0,0,0,0.0301,0.0301,0.0316,0.0273,0.0267,0.0269,0.0233,0.0224,0.0227,0.0224,0.0149,0.0135,0.0074,0.0028,0.0014,0.0033,-0.0016,-0.0125,-0.0125,-0.0125,0.0009,0.0019,0.0027,0,0,0,0,0,0.0301,0.032,0.0317,0.0316,0.0287,0.0271,0.0263,0.0234,0.0228,0.0233,0.0181,0.0139,0.0021,0.0024,0.0006,0.0025,-0.0126,-0.0125,-0.0125,0.0005,0.0017,0.0027,0,0,0,0,0,0,0.0328,0.0316,0.0311,0.0326,0.0313,0.0265,0.027,0.0254,0.0217,0.0218,0.014,0.0122,0.0092,0.0037,0.0043,-0.0011,-0.0059,-0.0062,0.0045,0.0056,0.0065,0.0111,-0.0021,0,0,0,0,0,0.0344,0.0356,0.0336,0.035,0.035,0.0317,0.031,0.0295,0.0257,0.0243,0.0193,0.0133,0.0076,0.0053,-0.0009,-0.0034,-0.0034,-0.0036,-0.0026,-0.0018,0.0006,0.0017,0.0031,-0.0122,-0.0122,-0.0122,0,0,0.0358,0.0355,0.0362,0.0358,0.0343,0.0345,0.0313,0.0317,0.0319,0.0232,0.022,0.0163,0.0074,0.0043,0.0025,0.0005,0.0032,-0.0017,-0.0009,0.001,0.0019,0.0034,0.0048,-0.0122,-0.0122,-0.0122,0,0,0.0385,0.0393,0.0408,0.0406,0.0404,0.0384,0.0398,0.0371,0.0363,0.0347,0.028,0.0246,0.0166,0.0111,0.007,0.0093,0.0077,0.0072,0.0162,0.0173,0.0187,0.0199,0.0259,0.0276,0.0081,0.0082,0.0082,0,0.0404,0.0418,0.0411,0.0424,0.0428,0.0411,0.0425,0.0413,0.0378,0.0378,0.0364,0.0272,0.0199,0.016,0.0168,0.0117,0.0144,0.0133,0.019,0.0202,0.0212,0.027,0.0287,0.0088,0.0088,0.0087,0.0086,0,0.043,0.045,0.0461,0.0472,0.0477,0.0489,0.048,0.0487,0.0484,0.0471,0.0458,0.0379,0.0333,0.0298,0.0241,0.0266,0.0272,0.0203,0.0176,0.0237,0.0294,0.0308,0.0098,0.0096,0.0094,0.0092,0,0,0.0449,0.0473,0.0481,0.0493,0.0506,0.0509,0.0531,0.0536,0.0556,0.0548,0.0567,0.0494,0.0488,0.0442,0.0376,0.0382,0.0478,0.0345,0.0342,0.0433,0.0564,0.0452,0.0457,0.0434,0.0436,0.0438,0.0592,0,0.047,0.0501,0.0511,0.0544,0.0556,0.0562,0.0579,0.059,0.0599,0.0615,0.0583,0.0571,0.0532,0.0522,0.0534,0.0477,0.0517,0.0446,0.0467,0.0469,0.0383,0.0468,0.0445,0.0603,0.0606,0.0608,0.061,0,0.0489,0.0506,0.0542,0.0574,0.0583,0.0606,0.064,0.0658,0.0681,0.0694,0.072,0.0697,0.0721,0.0658,0.0698,0.0667,0.0648,0.0612,0.0616,0.0472,0.0382,0.0514,0.0636,0.0634,0.0632,0.063,0.0629,0,0.0489,0.0529,0.0558,0.0569,0.0603,0.063,0.0654,0.0687,0.0712,0.0762,0.0796,0.0824,0.0844,0.0845,0.0805,0.0773,0.0835,0.0766,0.0662,0.0656,0.0653,0.0637,0.0801,0.0801,0.0801,0.08,0.08,0,0.0496,0.0523,0.0565,0.0581,0.0619,0.065,0.0701,0.073,0.0781,0.0815,0.0855,0.0875,0.0893,0.0914,0.0874,0.0838,0.091,0.0716,0.0686,0.071,0.0699,0.0666,0.0649,0.0806,0.0805,0.0804,0.0803,0,0.0487,0.0516,0.055,0.0599,0.062,0.0653,0.0725,0.0751,0.0828,0.0877,0.0905,0.0962,0.0985,0.0987,0.0974,0.0919,0.0875,0.0829,0.092,0.0886,0.0691,0.0678,0.0777,0.0775,0.0772,0.077,0.0769,0,0.0481,0.0499,0.0558,0.0576,0.0603,0.0658,0.0682,0.0759,0.0789,0.0899,0.0907,0.0972,0.0984,0.0944,0.0921,0.0894,0.0825,0.086,0.073,0.0727,0.0689,0.068,0.067,0.0765,0.0764,0.0764,0.0763,0,0.0464,0.0494,0.0517,0.0553,0.0587,0.0619,0.067,0.0688,0.0773,0.0864,0.089,0.0888,0.0901,0.0876,0.0865,0.0813,0.0874,0.0835,0.0838,0.0716,0.0713,0.0675,0.0669,0.0755,0.0756,0.0757,0.0757,0,0.0446,0.0456,0.0487,0.0514,0.0552,0.0557,0.0591,0.0622,0.0669,0.0791,0.0789,0.0833,0.0895,0.0832,0.0806,0.0771,0.0723,0.0691,0.0701,0.071,0.0597,0.0578,0.0587,0,0,0,0,0,0.0419,0.042,0.0441,0.0464,0.05,0.052,0.0565,0.0597,0.0686,0.0682,0.0739,0.0732,0.071,0.0719,0.0655,0.0721,0.0705,0.0642,0.067,0.071,0.072,0.0582,0,0,0,0,0,0,0.0395,0.0415,0.042,0.0417,0.0423,0.0451,0.0469,0.0522,0.0521,0.0618,0.0599,0.0688,0.0657,0.0742,0.0647,0.0646,0.0644,0.0671,0.0668,0.0705,0.0714,0.0721,0.0582,0,0,0,0,0]},{"header":{"parameterUnit":"m.s-1","parameterCategory":2,"la1":30.2991,"la2":30.254,"lo1":-89.0895,"lo2":-89.0444,"dy":0.0017,"dx":0.0017,"nx":28,"ny":28,"refTime":"2023-03-19T21:00:00:Z","depth":"4","parameterNumber":3,"parameterNumberName":"V-component_of_CURRENTS"},"data":[0,0,0,0,0,0,0,0,0,0,0,0,0,0,0,0,0,0,0,0,0,0,0,0,0,0,0,0,0,0,0,0,0,0,0,0,0,0,0,0,0,0,0,0,0,0,0,0,0,0,0,0,0,0,0,0,0,0,0.0336,0.0336,0,0.0278,0.0277,0.0276,0.0256,0.0257,0.0257,0.0258,0.0171,0.0168,0.0166,0,0,0,0,0,0,0,0,0,0,0,0,0,0.0378,0.0378,0.0336,0.0336,0.0335,0.0278,0.0277,0.0276,0.0256,0.0257,0.0257,0.0258,0.0172,0.0169,0.0166,0,0,0,0,0,0,0,0,0,0,0,0,0,0.0342,0.0378,0.0336,0.032,0.0318,0.0278,0.0277,0.0276,0.0256,0.0257,0.0257,0.0258,0.0173,0.0169,0.0165,0.0128,0,0,0.0153,0.0151,0,0,0,0,0,0,0,0,0.0345,0.0341,0.0323,0.0321,0.0319,0.0277,0.026,0.0226,0.0256,0.0278,0.0258,0.0258,0.0204,0.0198,0.0183,0.0124,0.012,0.0152,0.015,0.0148,0.0147,0,0,0,0,0,0,0,0.0347,0.0343,0.0311,0.0322,0.032,0.0297,0.0293,0.0253,0.0236,0.0276,0.0275,0.0271,0.0203,0.0187,0.0181,0.0119,0.0153,0.0149,0.0146,0.0145,0.0045,0.0045,0,0,0,0,0,0,0.036,0.0345,0.0313,0.031,0.0335,0.0297,0.0292,0.0288,0.0237,0.0231,0.027,0.027,0.0194,0.0186,0.0178,0.0175,0.0148,0.0145,0.0142,0.0046,0.0045,0.0045,0,0,0,0,0,0,0.0361,0.0358,0.0315,0.0328,0.0321,0.0296,0.0291,0.0287,0.0284,0.0234,0.0227,0.0275,0.0194,0.0184,0.0155,0.017,0.0143,0.0139,0.0046,0.0046,0.0045,0.0141,0,0,0,0,0,0,0.0363,0.0358,0.0365,0.0329,0.0321,0.0306,0.0291,0.0285,0.0281,0.028,0.0235,0.0227,0.0194,0.0162,0.0151,0.0164,0.0136,0.0046,0.0046,0.0045,0.0138,0.0144,0.0149,0,0,0,0,0,0.0364,0.0371,0.0365,0.0362,0.0329,0.0307,0.0301,0.0283,0.0281,0.0282,0.0252,0.0229,0.0151,0.0158,0.0146,0.0158,0.0046,0.0046,0.0045,0.0135,0.0143,0.0149,0,0,0,0,0,0,0.0395,0.0369,0.0362,0.0362,0.0343,0.0304,0.0304,0.0291,0.0268,0.0269,0.0225,0.0215,0.0195,0.0156,0.0165,0.0125,0.0095,0.0092,0.0167,0.0173,0.0179,0.0179,0.0133,0,0,0,0,0,0.0405,0.0404,0.0374,0.0376,0.0368,0.0338,0.0329,0.0317,0.0289,0.028,0.025,0.0211,0.0179,0.0163,0.0125,0.0102,0.0055,0.0099,0.0105,0.011,0.01,0.0044,0.0044,0.0043,0.0044,0.0044,0,0,0.0419,0.0404,0.0404,0.0383,0.0365,0.0355,0.0335,0.0326,0.032,0.0272,0.026,0.023,0.0176,0.0156,0.0143,0.013,0.0088,0.0109,0.0114,0.0101,0.0043,0.0043,0.0043,0.0043,0.0043,0.0043,0,0,0.0439,0.0432,0.0433,0.0419,0.0399,0.0378,0.0381,0.035,0.0342,0.0322,0.029,0.0267,0.0217,0.0185,0.0161,0.0167,0.0119,0.0161,0.0191,0.0138,0.0138,0.0137,0.0096,0.0091,0.0164,0.0165,0.0165,0,0.0458,0.0453,0.0432,0.0427,0.0421,0.0393,0.0392,0.0375,0.0342,0.0333,0.033,0.0259,0.0226,0.0192,0.0204,0.0181,0.0146,0.0179,0.0147,0.0145,0.0142,0.01,0.0093,0.0169,0.0169,0.0168,0.0168,0,0.0468,0.047,0.0471,0.0455,0.0447,0.0443,0.0417,0.041,0.0399,0.0378,0.0351,0.0305,0.0262,0.0257,0.0236,0.0207,0.0188,0.0165,0.0138,0.0149,0.0103,0.0094,0.0176,0.0174,0.0173,0.0172,0,0,0.0497,0.0481,0.0485,0.0487,0.0463,0.0459,0.045,0.0431,0.0428,0.0399,0.0381,0.0344,0.0323,0.0293,0.0264,0.0227,0.0199,0.0201,0.0196,0.0174,0.0091,0.0135,0.0128,0.0177,0.0176,0.0175,0.0074,0,0.0513,0.0517,0.0503,0.0514,0.0513,0.049,0.0487,0.0468,0.0449,0.0424,0.0376,0.0352,0.0335,0.0326,0.0286,0.0214,0.0176,0.0229,0.0071,0.0066,0.0114,0.0119,0.017,0.0067,0.0065,0.0064,0.0062,0,0.0524,0.0527,0.054,0.0543,0.0543,0.0549,0.0542,0.0536,0.0492,0.0477,0.0437,0.0392,0.0336,0.032,0.02,0.0237,0.0173,0.0118,0.0112,0.0108,0.0092,0.0045,0.0045,0.0046,0.0048,0.0049,0.005,0,0.055,0.0555,0.0572,0.0571,0.0566,0.0579,0.0583,0.0558,0.0564,0.0512,0.0506,0.0415,0.0388,0.0278,0.018,0.0186,0.0041,0.0026,-0.0001,0.0001,-0.005,-0.0049,-0.0067,-0.0067,-0.0066,-0.0066,-0.0066,0,0.0561,0.058,0.0593,0.0602,0.0633,0.0621,0.065,0.0635,0.062,0.0632,0.0547,0.0526,0.0381,0.0284,0.0174,0.0067,0.0031,0.0,-0.0024,-0.0006,0.0002,-0.0055,-0.0053,-0.007,-0.0069,-0.0068,-0.0068,0,0.0577,0.0584,0.061,0.0629,0.0645,0.0671,0.0713,0.0726,0.0715,0.0723,0.0712,0.0611,0.0496,0.0344,0.0166,0.009,-0.0044,-0.0074,-0.0036,-0.0056,-0.005,-0.0041,-0.0123,-0.0122,-0.0122,-0.0121,-0.0121,0,0.0579,0.0594,0.0641,0.0666,0.0682,0.0728,0.0757,0.0772,0.079,0.0779,0.0777,0.0681,0.0601,0.0373,0.0209,-0.0009,-0.0027,-0.01,-0.008,-0.0041,-0.0057,-0.0049,-0.0042,-0.012,-0.012,-0.012,-0.012,0,0.0586,0.0612,0.0635,0.0693,0.0739,0.0784,0.0834,0.0855,0.0875,0.0877,0.084,0.0726,0.06,0.0403,0.0245,0.0085,-0.0062,-0.0095,-0.0097,-0.0079,-0.0039,-0.0053,-0.0046,-0.0118,-0.0118,-0.0118,-0.0118,0,0.0601,0.0624,0.0667,0.0715,0.077,0.0818,0.0842,0.0873,0.0898,0.0899,0.0886,0.0746,0.067,0.0452,0.0292,0.0153,0.0121,0.0072,0.0061,0.0057,0.0145,0.0224,0.0204,0,0,0,0,0,0.0608,0.0643,0.0686,0.0742,0.0792,0.0832,0.0879,0.0897,0.0931,0.0923,0.0914,0.08,0.0598,0.0485,0.0356,0.0285,0.0078,0.0127,0.0011,-0.0107,-0.0109,-0.0031,0,0,0,0,0,0,0.0619,0.0666,0.0689,0.0753,0.0794,0.0859,0.0889,0.0908,0.0897,0.0912,0.0794,0.0783,0.0561,0.0684,0.0361,0.0318,0.0228,0.0038,0.0035,-0.0106,-0.0108,-0.011,-0.003,0,0,0,0,0]}]]